TimeCDT,TemperatureF,Dew PointF,Humidity,Sea Level PressureIn,VisibilityMPH,Wind Direction,Wind SpeedMPH,Gust SpeedMPH,PrecipitationIn,Events,Conditions,WindDirDegrees,DateUTC
12:15 AM,71.6,69.8,94,30.08,5.0,Calm,Calm,-,N/A,,Clear,0,2013-08-21 05:15:00
12:35 AM,73.4,71.6,94,30.08,5.0,ESE,4.6,-,N/A,,Clear,120,2013-08-21 05:35:00
12:55 AM,73.4,71.6,94,30.08,5.0,Calm,Calm,-,N/A,,Clear,0,2013-08-21 05:55:00
1:15 AM,73.4,71.6,94,30.08,4.0,Calm,Calm,-,N/A,,Clear,0,2013-08-21 06:15:00
1:35 AM,73.4,71.6,94,30.08,4.0,Calm,Calm,-,N/A,,Clear,0,2013-08-21 06:35:00
1:55 AM,73.4,71.6,94,30.08,4.0,Calm,Calm,-,N/A,,Clear,0,2013-08-21 06:55:00
2:15 AM,71.6,71.6,100,30.08,3.0,Calm,Calm,-,N/A,,Clear,0,2013-08-21 07:15:00
2:35 AM,71.6,71.6,100,30.08,2.5,Calm,Calm,-,N/A,,Clear,0,2013-08-21 07:35:00
2:55 AM,71.6,71.6,100,30.08,4.0,Calm,Calm,-,N/A,,Scattered Clouds,0,2013-08-21 07:55:00
3:15 AM,71.6,69.8,94,30.08,4.0,Calm,Calm,-,N/A,,Clear,0,2013-08-21 08:15:00
3:35 AM,71.6,71.6,100,30.08,4.0,Calm,Calm,-,N/A,,Clear,0,2013-08-21 08:35:00
3:55 AM,71.6,69.8,94,30.09,3.0,Calm,Calm,-,N/A,,Clear,0,2013-08-21 08:55:00
4:15 AM,71.6,69.8,94,30.09,4.0,Calm,Calm,-,N/A,,Clear,0,2013-08-21 09:15:00
4:35 AM,71.6,69.8,94,30.09,3.0,Calm,Calm,-,N/A,,Clear,0,2013-08-21 09:35:00
4:55 AM,69.8,68.0,94,30.09,3.0,Calm,Calm,-,N/A,,Scattered Clouds,0,2013-08-21 09:55:00
5:15 AM,69.8,68.0,94,30.10,2.5,Calm,Calm,-,N/A,,Mist,0,2013-08-21 10:15:00
5:35 AM,69.8,68.0,94,30.10,3.0,Calm,Calm,-,N/A,,Mist,0,2013-08-21 10:35:00
5:55 AM,69.8,68.0,94,30.11,5.0,Calm,Calm,-,N/A,,Clear,0,2013-08-21 10:55:00
6:15 AM,69.8,68.0,94,30.12,3.0,Calm,Calm,-,N/A,,Clear,0,2013-08-21 11:15:00
6:35 AM,69.8,69.8,100,30.12,7.0,Calm,Calm,-,N/A,,Clear,0,2013-08-21 11:35:00
6:55 AM,69.8,69.8,100,30.13,5.0,Calm,Calm,-,N/A,,Scattered Clouds,0,2013-08-21 11:55:00
7:15 AM,71.6,69.8,94,30.14,5.0,Calm,Calm,-,N/A,,Scattered Clouds,0,2013-08-21 12:15:00
7:35 AM,71.6,69.8,94,30.15,5.0,Calm,Calm,-,N/A,,Scattered Clouds,0,2013-08-21 12:35:00
7:55 AM,71.6,69.8,94,30.15,5.0,Calm,Calm,-,N/A,,Mostly Cloudy,0,2013-08-21 12:55:00
8:15 AM,71.6,71.6,100,30.16,7.0,Calm,Calm,-,N/A,,Scattered Clouds,0,2013-08-21 13:15:00
8:35 AM,71.6,71.6,100,30.16,7.0,Calm,Calm,-,N/A,,Scattered Clouds,0,2013-08-21 13:35:00
8:55 AM,73.4,71.6,94,30.16,10.0,Calm,Calm,-,N/A,,Mostly Cloudy,0,2013-08-21 13:55:00
9:15 AM,73.4,71.6,94,30.16,10.0,SSE,4.6,-,N/A,,Mostly Cloudy,160,2013-08-21 14:15:00
9:35 AM,73.4,71.6,94,30.17,10.0,Calm,Calm,-,N/A,,Overcast,0,2013-08-21 14:35:00
9:55 AM,75.2,71.6,89,30.17,10.0,Calm,Calm,-,N/A,,Overcast,0,2013-08-21 14:55:00
10:15 AM,77.0,71.6,83,30.17,10.0,Calm,Calm,-,N/A,,Overcast,0,2013-08-21 15:15:00
10:35 AM,77.0,71.6,83,30.18,10.0,SE,4.6,-,N/A,,Overcast,140,2013-08-21 15:35:00
10:55 AM,77.0,71.6,83,30.18,10.0,Calm,Calm,-,N/A,,Overcast,0,2013-08-21 15:55:00
11:15 AM,78.8,71.6,78,30.18,10.0,Calm,Calm,-,N/A,,Overcast,0,2013-08-21 16:15:00
11:35 AM,78.8,73.4,83,30.17,10.0,Calm,Calm,-,N/A,,Mostly Cloudy,0,2013-08-21 16:35:00
11:55 AM,80.6,73.4,79,30.16,10.0,Calm,Calm,-,N/A,,Scattered Clouds,0,2013-08-21 16:55:00
12:15 PM,80.6,73.4,79,30.16,10.0,Calm,Calm,-,N/A,,Scattered Clouds,0,2013-08-21 17:15:00
12:35 PM,82.4,73.4,74,30.15,10.0,SSE,3.5,-,N/A,,Scattered Clouds,160,2013-08-21 17:35:00
12:55 PM,82.4,73.4,74,30.14,10.0,ESE,6.9,-,N/A,,Clear,120,2013-08-21 17:55:00
1:15 PM,82.4,73.4,74,30.14,10.0,Calm,Calm,-,N/A,,Scattered Clouds,0,2013-08-21 18:15:00
1:35 PM,84.2,71.6,66,30.14,10.0,Calm,Calm,-,N/A,,Scattered Clouds,0,2013-08-21 18:35:00
1:55 PM,86.0,73.4,66,30.13,10.0,Calm,Calm,-,N/A,,Scattered Clouds,0,2013-08-21 18:55:00
2:15 PM,84.2,73.4,70,30.12,10.0,East,4.6,-,N/A,,Scattered Clouds,100,2013-08-21 19:15:00
2:35 PM,86.0,71.6,62,30.12,10.0,SSE,3.5,-,N/A,,Scattered Clouds,150,2013-08-21 19:35:00
2:55 PM,86.0,71.6,62,30.11,10.0,SSE,5.8,-,N/A,,Scattered Clouds,160,2013-08-21 19:55:00
3:15 PM,87.8,73.4,62,30.10,10.0,Calm,Calm,-,N/A,,Scattered Clouds,0,2013-08-21 20:15:00
3:35 PM,86.0,73.4,66,30.09,10.0,Calm,Calm,-,N/A,,Scattered Clouds,0,2013-08-21 20:35:00
3:55 PM,87.8,73.4,62,30.09,10.0,SSW,3.5,-,N/A,,Scattered Clouds,200,2013-08-21 20:55:00
4:15 PM,87.8,71.6,58,30.07,10.0,South,3.5,-,N/A,,Scattered Clouds,180,2013-08-21 21:15:00
4:35 PM,86.0,71.6,62,30.07,10.0,Calm,Calm,-,N/A,,Clear,0,2013-08-21 21:35:00
4:55 PM,86.0,71.6,62,30.07,10.0,Calm,Calm,-,N/A,,Scattered Clouds,0,2013-08-21 21:55:00
5:15 PM,86.0,71.6,62,30.07,10.0,Calm,Calm,-,N/A,,Scattered Clouds,0,2013-08-21 22:15:00
5:35 PM,82.4,73.4,74,30.07,10.0,South,3.5,-,N/A,,Clear,180,2013-08-21 22:35:00
5:55 PM,80.6,73.4,79,30.07,10.0,Calm,Calm,-,N/A,,Clear,0,2013-08-21 22:55:00
6:15 PM,80.6,73.4,79,30.07,10.0,Calm,Calm,-,N/A,,Clear,0,2013-08-21 23:15:00
6:35 PM,80.6,73.4,79,30.07,10.0,Calm,Calm,-,N/A,,Clear,0,2013-08-21 23:35:00
6:55 PM,80.6,75.2,84,30.08,10.0,Calm,Calm,-,N/A,,Clear,0,2013-08-21 23:55:00
7:15 PM,80.6,75.2,84,30.09,10.0,Calm,Calm,-,N/A,,Clear,0,2013-08-22 00:15:00
7:35 PM,78.8,75.2,89,30.09,10.0,Calm,Calm,-,N/A,,Clear,0,2013-08-22 00:35:00
7:55 PM,77.0,73.4,89,30.09,10.0,Calm,Calm,-,N/A,,Clear,0,2013-08-22 00:55:00
8:15 PM,77.0,73.4,89,30.09,10.0,Calm,Calm,-,N/A,,Clear,0,2013-08-22 01:15:00
8:35 PM,75.2,73.4,94,30.09,10.0,Calm,Calm,-,N/A,,Clear,0,2013-08-22 01:35:00
8:55 PM,77.0,73.4,89,30.11,10.0,Calm,Calm,-,N/A,,Clear,0,2013-08-22 01:55:00
9:15 PM,77.0,73.4,89,30.11,10.0,Calm,Calm,-,N/A,,Clear,0,2013-08-22 02:15:00
9:35 PM,73.4,71.6,94,30.12,10.0,Calm,Calm,-,N/A,,Clear,0,2013-08-22 02:35:00
9:55 PM,73.4,71.6,94,30.13,7.0,Calm,Calm,-,N/A,,Clear,0,2013-08-22 02:55:00
10:15 PM,73.4,71.6,94,30.13,10.0,Calm,Calm,-,N/A,,Clear,0,2013-08-22 03:15:00
10:35 PM,73.4,71.6,94,30.12,10.0,Calm,Calm,-,N/A,,Clear,0,2013-08-22 03:35:00
10:55 PM,71.6,71.6,100,30.12,7.0,Calm,Calm,-,N/A,,Clear,0,2013-08-22 03:55:00
11:15 PM,71.6,71.6,100,30.12,7.0,Calm,Calm,-,N/A,,Clear,0,2013-08-22 04:15:00
11:35 PM,71.6,71.6,100,30.11,1.8,Calm,Calm,-,N/A,,Mist,0,2013-08-22 04:35:00
11:55 PM,71.6,71.6,100,30.11,5.0,Calm,Calm,-,N/A,,Clear,0,2013-08-22 04:55:00